Skip Page Navigation
NASA JPL Caltech
NASA Logo - Jet Propulsion Laboratory + View the NASA Portal
+ Near-Earth Object (NEO) Program
Search JPL
JPL Home Earth Solar System Stars & Galaxies Technology
JPL Solar System Dynamics
BODIES ORBITS EPHEMERIDES TOOLS PHYSICAL DATA DISCOVERY FAQ SITE MAP
JPL Small-Body Database Browser
Search: [ help ]  
7180 (1991 NG1)
Classification: Main-belt Asteroid          SPK-ID: 2007180
Ephemeris | Orbit Diagram | Orbital Elements | Physical Parameters | Discovery Circumstances ]

[ show orbit diagram ]
Orbital Elements at Epoch 2457000.5 (2014-Dec-09.0) TDB
Reference: JPL 8 (heliocentric ecliptic J2000)
 Element Value Uncertainty (1-sigma)   Units 
e .1096617740812095 8.8015e-08  
a 3.013919024813473 3.6608e-08 AU
q 2.683407317615318 2.677e-07 AU
i 9.045792062733856 8.4124e-06 deg
node 307.5668315083755 4.9111e-05 deg
peri 43.00356237735628 6.2551e-05 deg
M 144.8437730762174 3.4621e-05 deg
tp 2456231.558810225634
(2012-Oct-31.05881023)
0.0001861 JED
period 1911.154497287975
5.23
3.482e-05
9.533e-08
d
yr
n .1883678166840296 3.4319e-09 deg/d
Q 3.344430732011627 4.0622e-08 AU
  Orbit Determination Parameters
   # obs. used (total)      714  
   data-arc span      11410 days (31.24 yr)  
   first obs. used      1982-12-22  
   last obs. used      2014-03-19  
   planetary ephem.      DE431  
   SB-pert. ephem.      SB431-BIG16  
   condition code      0  
   fit RMS      .51793  
   data source      ORB  
   producer      Otto Matic  
   solution date      2014-Jun-09 18:54:47  

Additional Information
 Earth MOID = 1.68512 AU 
 T_jup = 3.221 
[ show covariance matrix ]

Ephemeris | Orbit Diagram | Orbital Elements | Physical Parameters | Discovery Circumstances ]

Physical Parameter Table
Parameter Symbol Value Units Sigma Reference Notes
absolute magnitude H 12.9 mag n/a MPO250280  

7180 (1991 NG1)          Discovered 1991-Jul-12 by Holt, H. E. at Palomar (675)
Reference: DISCOVERY.DBLast Updated: 2003-08-29

Alternate Designations
 1991 NG1 = 1982 YR = 1990 HV2 
Ephemeris | Orbit Diagram | Orbital Elements | Physical Parameters | Discovery Circumstances ]
ABOUT SSD CREDITS/AWARDS PRIVACY/COPYRIGHT GLOSSARY LINKS
FirstGov 2014-Sep-02 11:42 UT
(server date/time)  
NASA Home Page
Site Manager:   Donald K. Yeomans
Webmaster  Alan B. Chamberlin